Terminal Aerodrome Forecast
Issued by NWS

Home | Current Version | Previous Version | Graphics & Text | Print | Product List | Glossary On
Versions: 1 2 3 4 5 6 7 8 9 10 11 12
000
FTUS45 KGGW 221700
TAFSDY
TAF
KSDY 221737Z 2218/2318 14009KT P6SM SKC
     FM222100 14013KT P6SM SKC
     FM230300 VRB05KT P6SM FEW100
      AMD LTD TO CLD VIS AND WIND=

USA.gov is the U.S. government's official web portal to all federal, state and local government web resources and services.